Location: Newark
(35.6799°N, 139.7636°E)
Time: 19:15:12
(UTC+00:00)

Courier 1B - Pass Details

Date: 14 December 2019
Orbit: 962 x 1209 km, 28.3° (Epoch: 28 January)

Event Time Altitude Azimuth Distance (km) Brightness Sun altitude
Rises 11:12:02 0° 248° (WSW) 3,813 11.3 -44.5°
Reaches altitude 10° 11:14:48 10° 242° (WSW) 2,896 10.4 -45.1°
Enters shadow 11:16:42 19° 235° (SW) 2,311 9.7 -45.5°
